SL-14 DEB

Satellite information

Favourite Embed

Satellite Type and Status

DEBRISIN ORBIT

Key statistics

Satellite SL-14 DEB at a glance.

Uptime

12493

Days in orbit

Revolutions

≈ 13.1

Per day

Orbit

LEO

Low Earth Orbit

Inclination

82.6

Latest

Satellite identification and parameters

Extended collection of information and parameters for SL-14 DEB.

Object identification

Identified? True

Debris? True

Object name: SL-14 DEB

International designator: 1991-056DA

Object number (NORAD): 46465

Object ID (CCSDS): 46465

Country: COMMONWEALTH OF INDEPENDENT STATES (CIS)

Current information (Y/N): Y

RCS size: SMALL

Orbital parameters

Period: 109.758 minutes

Inclination: 82.5596 deg

SMA: 7593.673 km

Apoapsis: 1237.932 km

Periapsis: 1193.145 km

RAAN: 319.8274 deg

Eccentricy: 0.00294898

Argument of periapsis: 157.2227 deg

Mean anomaly: 203.0208 deg

Mean motion: 13.11972977 rev/day

Mean motion (dot): -0.00000468 rev/day2

B* drag term: -0.001341229 1/REarth

Two-line elements (TLE)

Creation date: Oct. 26, 2025, 2:54 a.m.

Reference frame: TEME

Reference center: EARTH

Epoch: Oct. 25, 2025, 6:41 p.m. UTC

TLE line 0: 0 SL-14 DEB

TLE line 1: 1 46465U 91056DA 25298.77874965 -.00000468 00000-0 -13412-2 0 9998

TLE line 2: 2 46465 82.5596 319.8274 0029490 157.2227 203.0208 13.11972977250241

Live tracking on map

Real-time ground track for satellite SL-14 DEB.

In-orbit conjunctions

A list of the most updated potential collisions computed for object SL-14 DEB.

Target Orbit TCA Probability of collision Miss distance Type
COSMOS 397 DEB LEO 2024-11-18 07:02:16 0.0002532711 189.0 (m) DEBRIS
METEOR 3-3 LEO 2024-09-11 16:11:34 0.0004913855 159.0 (m) PAYLOAD

Associated space launch

Third generation meteorological satellite

SL-14 DEB was lifted into orbit during the mission ‘Tsiklon-3 | Meteor-3 5’, on board a Tsiklon-3 space rocket.

The launch took place on Aug. 15, 1991, 9:15 a.m. from 32/2.

For more information about the launch, click the button.

Launch to space Tsiklon-3 | Meteor-3 5
Tsiklon-3 | Meteor-3 5

Agency: N/A

Status: Launch Successful

Launch date: Aug. 15, 1991, 9:15 a.m. UTC

Rocket: Tsiklon-3

Launch pad: 32/2

Location: Plesetsk Cosmodrome, Russian Federation

...

Latest news about this satellite

There are no fresh news available about this satellite. Check back as we update our databases every day.


Newsletter sign-up

Weekly statistics, charts and insights to help you stay on top of the space industry.